When you browse on this site, cookies collect data to enhance your experience and personalize the content and advertising you see.
Visit our Privacy Policy to learn more. By continuing to use the site, you agree to this use of cookies and data.
  • In Italy
  • List of Countries
  • For 7 days
  • Water Temperature
  • Satellite Maps
  • Weather Map
  • Weather Widgets
  • user-avatar
    Login

    Hourly Weather Simferopol'

    Today, 22 January, Tuesday

    Time Temperature Precipitation Wind Pressure Humidity
    00:00 -2°C° 0 mm 3 mps 735 mmHg 89%
    01:00 -4°C° 0 mm 3 mps 735 mmHg 89%
    02:00 -4°C° 0 mm 3 mps 736 mmHg 88%
    03:00 -4°C° 0 mm 3 mps 736 mmHg 88%
    04:00 -5°C° 0 mm 3 mps 736 mmHg 87%
    05:00 -5°C° 0 mm 3 mps 736 mmHg 86%
    06:00 -4°C° 0 mm 2 mps 736 mmHg 85%
    07:00 -4°C° 0 mm 2 mps 737 mmHg 84%
    08:00 -4°C° 0 mm 2 mps 737 mmHg 82%
    09:00 -3°C° 0 mm 2 mps 737 mmHg 77%
    10:00 -2°C° 0 mm 2 mps 737 mmHg 73%
    11:00 -1°C° 0 mm 2 mps 738 mmHg 68%
    12:00 +2°C° 0 mm 1 mps 737 mmHg 67%
    13:00 +2°C° 0 mm 1 mps 737 mmHg 67%
    14:00 +3°C° 0 mm 1 mps 737 mmHg 69%
    15:00 +1°C° 0 mm 2 mps 737 mmHg 73%
    16:00 -1°C° 0 mm 2 mps 736 mmHg 77%
    17:00 -1°C° 0 mm 2 mps 736 mmHg 81%
    18:00 -2°C° 0 mm 2 mps 736 mmHg 81%
    19:00 -2°C° 0 mm 3 mps 735 mmHg 82%
    20:00 -2°C° 0 mm 3 mps 735 mmHg 83%
    21:00 -2°C° 0 mm 3 mps 735 mmHg 83%
    22:00 -2°C° 0 mm 3 mps 735 mmHg 83%
    23:00 -2°C° 0 mm 3 mps 734 mmHg 83%

    Tomorrow, 23 January, Wednesday

    Time Temperature Precipitation Wind Pressure Humidity
    00:00 -1°C° 0 mm 3 mps 734 mmHg 84%
    01:00 -1°C° 0 mm 3 mps 734 mmHg 85%
    02:00 -1°C° 0 mm 3 mps 733 mmHg 86%
    03:00 -1°C° 0 mm 3 mps 733 mmHg 86%
    04:00 -1°C° 0 mm 3 mps 732 mmHg 86%
    05:00 -1°C° 0 mm 3 mps 732 mmHg 86%
    06:00 -1°C° 0 mm 3 mps 732 mmHg 85%
    07:00 -1°C° 0 mm 4 mps 731 mmHg 84%
    08:00 -1°C° 0 mm 4 mps 731 mmHg 83%
    09:00 +1°C° 0 mm 4 mps 731 mmHg 79%
    10:00 +3°C° 0 mm 5 mps 731 mmHg 76%
    11:00 +5°C° 0 mm 5 mps 731 mmHg 72%
    12:00 +5°C° 0 mm 6 mps 730 mmHg 73%
    13:00 +5°C° 0 mm 6 mps 730 mmHg 74%
    14:00 +5°C° 0 mm 6 mps 729 mmHg 75%
    15:00 +5°C° 0.1 mm 6 mps 729 mmHg 77%
    16:00 +4°C° 0.1 mm 6 mps 729 mmHg 78%
    17:00 +5°C° 0.1 mm 5 mps 729 mmHg 80%
    18:00 +5°C° 0 mm 5 mps 728 mmHg 79%
    19:00 +5°C° 0 mm 5 mps 728 mmHg 78%
    20:00 +5°C° 0 mm 5 mps 728 mmHg 77%
    21:00 +5°C° 0 mm 5 mps 728 mmHg 76%
    22:00 +5°C° 0 mm 4 mps 728 mmHg 75%
    23:00 +5°C° 0 mm 4 mps 728 mmHg 74%

    Day after tomorrow, 24 January, Thursday

    Time Temperature Precipitation Wind Pressure Humidity
    00:00 +5°C° 0 mm 4 mps 728 mmHg 75%
    01:00 +5°C° 0 mm 3 mps 728 mmHg 76%
    02:00 +5°C° 0 mm 3 mps 728 mmHg 77%
    03:00 +5°C° 0.1 mm 3 mps 728 mmHg 78%
    04:00 +5°C° 0.1 mm 3 mps 727 mmHg 78%
    05:00 +5°C° 0.1 mm 3 mps 727 mmHg 78%
    06:00 +5°C° 0 mm 3 mps 727 mmHg 77%
    07:00 +5°C° 0 mm 3 mps 727 mmHg 77%
    08:00 +5°C° 0 mm 3 mps 727 mmHg 76%
    09:00 +7°C° 0 mm 3 mps 727 mmHg 72%
    10:00 +8°C° 0 mm 3 mps 727 mmHg 69%
    11:00 +9°C° 0 mm 3 mps 727 mmHg 66%
    12:00 +10°C° 0 mm 3 mps 726 mmHg 64%
    13:00 +10°C° 0 mm 3 mps 725 mmHg 63%
    14:00 +10°C° 0 mm 3 mps 725 mmHg 62%
    15:00 +9°C° 0 mm 3 mps 725 mmHg 66%
    16:00 +8°C° 0 mm 3 mps 724 mmHg 69%
    17:00 +7°C° 0 mm 3 mps 724 mmHg 73%
    18:00 +6°C° 0 mm 4 mps 724 mmHg 72%
    19:00 +5°C° 0 mm 4 mps 724 mmHg 72%
    20:00 +5°C° 0 mm 4 mps 724 mmHg 71%
    21:00 +5°C° 0 mm 4 mps 724 mmHg 71%
    22:00 +5°C° 0 mm 3 mps 724 mmHg 71%
    23:00 +5°C° 0 mm 3 mps 724 mmHg 70%

    25 January, Friday

    Time Temperature Precipitation Wind Pressure Humidity
    00:00 +5°C° 0 mm 3 mps 724 mmHg 71%
    01:00 +6°C° 0 mm 2 mps 724 mmHg 71%
    02:00 +6°C° 0 mm 2 mps 724 mmHg 71%
    03:00 +6°C° 0 mm 2 mps 724 mmHg 70%
    04:00 +6°C° 0 mm 2 mps 724 mmHg 70%
    05:00 +7°C° 0 mm 1 mps 724 mmHg 69%
    06:00 +6°C° 0.2 mm 2 mps 725 mmHg 72%
    07:00 +6°C° 0.2 mm 2 mps 725 mmHg 74%
    08:00 +6°C° 0.2 mm 2 mps 725 mmHg 77%
    09:00 +7°C° 0.3 mm 2 mps 726 mmHg 77%
    10:00 +8°C° 0.3 mm 1 mps 726 mmHg 77%
    11:00 +9°C° 0.3 mm 1 mps 727 mmHg 78%
    12:00 +9°C° 0 mm 1 mps 727 mmHg 74%
    13:00 +10°C° 0 mm 1 mps 727 mmHg 70%
    14:00 +11°C° 0 mm 1 mps 727 mmHg 66%
    15:00 +10°C° 0 mm 1 mps 727 mmHg 70%
    16:00 +9°C° 0 mm 1 mps 727 mmHg 74%
    17:00 +7°C° 0 mm 2 mps 727 mmHg 78%
    18:00 +7°C° 0 mm 2 mps 727 mmHg 77%
    19:00 +6°C° 0 mm 2 mps 727 mmHg 77%
    20:00 +6°C° 0 mm 2 mps 728 mmHg 76%
    21:00 +6°C° 0 mm 2 mps 727 mmHg 75%
    22:00 +6°C° 0 mm 2 mps 727 mmHg 74%
    23:00 +6°C° 0 mm 2 mps 727 mmHg 73%

    26 January, Saturday

    Time Temperature Precipitation Wind Pressure Humidity
    00:00 +6°C° 0 mm 2 mps 727 mmHg 72%
    01:00 +6°C° 0 mm 2 mps 726 mmHg 71%
    02:00 +6°C° 0 mm 2 mps 726 mmHg 71%
    03:00 +6°C° 0 mm 2 mps 726 mmHg 73%
    04:00 +5°C° 0 mm 3 mps 725 mmHg 75%
    05:00 +5°C° 0 mm 3 mps 725 mmHg 76%
    06:00 +5°C° 0.1 mm 3 mps 725 mmHg 79%
    07:00 +6°C° 0.1 mm 2 mps 725 mmHg 81%
    08:00 +6°C° 0.1 mm 2 mps 725 mmHg 84%
    09:00 +7°C° 0.2 mm 2 mps 725 mmHg 82%
    10:00 +7°C° 0.2 mm 2 mps 725 mmHg 80%
    11:00 +8°C° 0.2 mm 2 mps 725 mmHg 78%
    12:00 +9°C° 0.1 mm 2 mps 725 mmHg 77%
    13:00 +9°C° 0.1 mm 2 mps 724 mmHg 75%
    14:00 +10°C° 0.1 mm 2 mps 724 mmHg 74%
    15:00 +9°C° 0 mm 2 mps 724 mmHg 77%
    16:00 +8°C° 0 mm 2 mps 724 mmHg 81%
    17:00 +7°C° 0 mm 2 mps 724 mmHg 85%
    18:00 +7°C° 0.1 mm 2 mps 724 mmHg 84%
    19:00 +7°C° 0.1 mm 2 mps 724 mmHg 84%
    20:00 +7°C° 0.1 mm 1 mps 724 mmHg 83%
    21:00 +7°C° 0.1 mm 1 mps 724 mmHg 82%
    22:00 +7°C° 0.1 mm 1 mps 724 mmHg 81%
    23:00 +7°C° 0.1 mm 1 mps 724 mmHg 81%

    27 January, Sunday

    Time Temperature Precipitation Wind Pressure Humidity
    00:00 +7°C° 0 mm 1 mps 724 mmHg 82%
    01:00 +7°C° 0 mm 1 mps 724 mmHg 84%
    02:00 +7°C° 0 mm 1 mps 724 mmHg 85%
    03:00 +6°C° 0.1 mm 1 mps 724 mmHg 88%
    04:00 +6°C° 0.1 mm 1 mps 724 mmHg 90%
    05:00 +6°C° 0.1 mm 1 mps 724 mmHg 93%
    06:00 +6°C° 0.4 mm 1 mps 724 mmHg 94%
    07:00 +5°C° 0.4 mm 0 mps 725 mmHg 95%
    08:00 +5°C° 0.4 mm 0 mps 725 mmHg 96%
    09:00 +6°C° 0.3 mm 1 mps 725 mmHg 93%
    10:00 +7°C° 0.3 mm 1 mps 725 mmHg 90%
    11:00 +7°C° 0.3 mm 1 mps 726 mmHg 87%
    12:00 +7°C° 0.1 mm 1 mps 726 mmHg 86%
    13:00 +8°C° 0.1 mm 1 mps 726 mmHg 84%
    14:00 +7°C° 0.1 mm 2 mps 725 mmHg 83%
    15:00 +6°C° 0 mm 2 mps 726 mmHg 86%
    16:00 +4°C° 0 mm 3 mps 726 mmHg 88%
    17:00 +3°C° 0 mm 3 mps 726 mmHg 91%
    18:00 +3°C° 0 mm 3 mps 726 mmHg 91%
    19:00 +3°C° 0 mm 4 mps 727 mmHg 91%
    20:00 +1°C° 0 mm 4 mps 727 mmHg 91%
    21:00 +1°C° 0 mm 4 mps 727 mmHg 91%
    22:00 0°C° 0 mm 5 mps 727 mmHg 91%
    23:00 0°C° 0 mm 5 mps 728 mmHg 90%
    Show more